Weather observations for the past three days for
Duluth - Sky Harbor Airport
Imperial (Metric)
Date Time (cdt) Wind (mph) Vis. (mi.) Weather Sky Cond. Temperature (ºF) Relative Humidity Wind Chill (°F) Heat Index (°F) Pressure Precipitation (in)
Air Dwpt 6 hour altimeter (in) sea level (mb) 1 hr 3 hr 6 hr
Max. Min.
05 03:35 NE 12 10.00 Overcast OVC010 62.6 62.6 100% 30.04 0.0
05 03:15 NE 14 10.00 Overcast OVC009 62.6 62.6 100% 30.03 0.0
05 02:55 NE 15 10.00 Overcast OVC009 62.6 62.6 100% 30.03 0.0
05 02:35 NE 15 10.00 Overcast OVC009 62.6 62.6 100% 30.03 0.0
05 02:15 NE 10 10.00 Overcast OVC009 62.6 62.6 100% 30.03 0.0
05 01:55 NE 9 10.00 Overcast OVC009 62.6 62.6 100% 30.03 0.0
05 01:35 NE 10 10.00 Overcast OVC008 62.6 62.6 100% 30.03 0.0
05 01:15 NE 13 10.00 Overcast OVC006 62.6 62.6 100% 30.03 0.0
05 00:55 NE 17 4.00 Fog/Mist OVC004 62.6 62.6 100% 30.03 0.0
05 00:35 NE 17 2.00 Unknown Precip Fog/Mist OVC003 62.6 62.6 100% 30.03 0.0
05 00:15 NE 18 2.00 Fog/Mist OVC003 62.6 62.6 100% 30.03 0.0
04 23:55 NE 18 2.00 Fog/Mist OVC003 62.6 62.6 100% 30.02 0.0
04 23:35 NE 16 1.50 Unknown Precip Fog/Mist OVC003 62.6 62.6 100% 30.02 0.0
04 23:15 NE 16 1.50 Unknown Precip Fog/Mist OVC003 62.6 62.6 100% 30.02 0.0
04 22:55 NE 15 1.00 Unknown Precip Fog/Mist OVC003 62.6 62.6 100% 30.03 0.0
04 22:35 Calm 2.50 Fog/Mist OVC003 62.6 62.6 100% 30.03 0.0
04 22:15 NE 16 3.00 Fog/Mist OVC003 62.6 62.6 100% 30.04 0.0
04 21:55 NE 16 2.00 Fog/Mist OVC003 62.6 62.6 100% 30.04 0.0
04 21:35 NE 17 2.50 Fog/Mist OVC004 62.6 62.6 100% 30.03 0.0
04 21:15 NE 17 4.00 Fog/Mist OVC004 62.6 62.6 100% 30.03 0.0
04 20:55 NE 18 4.00 Unknown Precip Fog/Mist OVC004 62.6 62.6 100% 30.02 0.0
04 20:35 NE 18 4.00 Unknown Precip Fog/Mist OVC004 62.6 62.6 100% 30.01 0.0
04 20:15 NE 16 2.50 Unknown Precip Fog/Mist NULL 62.6 62.6 100% 30.01 0.0
04 19:55 NE 20 4.00 Fog/Mist OVC004 62.6 62.6 100% 30 0.0
04 19:35 NE 21 10.00 Overcast and Breezy OVC004 62.6 62.6 100% 30 0.0
04 19:15 NE 18 G 25 10.00 Overcast OVC005 62.6 62.6 100% 30 0.0
04 18:55 NE 21 10.00 Overcast and Breezy OVC005 62.6 62.6 100% 30 0.0
04 18:35 NE 21 10.00 Overcast and Breezy OVC006 62.6 62.6 100% 30 0.0
04 18:15 NE 21 10.00 Overcast and Breezy OVC006 62.6 62.6 100% 29.99 0.0
04 17:55 NE 20 10.00 Overcast OVC005 62.6 62.6 100% 29.99 0.0
04 17:35 NE 22 10.00 Overcast and Breezy OVC006 62.6 62.6 100% 29.99 0.0
04 17:15 NE 20 10.00 Overcast BKN008 OVC012 62.6 62.6 100% 29.99 0.0
04 16:55 NE 23 G 29 10.00 Overcast and Breezy BKN011 OVC020 62.6 62.6 100% 29.99 0.0
04 16:35 NE 21 10.00 Overcast and Breezy OVC012 62.6 62.6 100% 29.98 0.0
04 16:15 NE 23 10.00 Overcast and Breezy BKN014 OVC022 62.6 62.6 100% 29.98 0.0
04 15:55 NE 21 G 28 10.00 Overcast and Breezy OVC014 62.6 62.6 100% 29.98 0.0
04 15:35 NE 22 10.00 Overcast and Breezy OVC013 62.6 62.6 100% 29.98 0.0
04 15:15 NE 22 10.00 Overcast and Breezy OVC012 62.6 62.6 100% 29.98 0.0
04 14:35 E 20 10.00 Overcast OVC013 62.6 62.6 100% 29.97 0.0
04 14:15 NE 20 10.00 Overcast OVC010 62.6 62.6 100% 29.97 0.0
04 13:55 NE 17 G 23 10.00 Overcast OVC010 62.6 62.6 100% 29.97 0.0
04 13:35 NE 17 10.00 Overcast OVC009 62.6 62.6 100% 29.96 0.0
04 13:15 NE 18 10.00 Overcast OVC008 62.6 62.6 100% 29.96 0.0
04 12:55 NE 18 G 26 10.00 Overcast OVC006 62.6 62.6 100% 29.96 0.0
04 12:35 NE 21 10.00 Breezy NULL 62.6 62.6 100% 29.96 0.0
04 12:15 Calm 4.00 Fog/Mist NULL 62.6 62.6 100% 0 0.0
04 11:35 NE 22 1.50 Unknown Precip Fog/Mist and Breezy OVC003 62.6 62.6 100% 29.95 0.0
04 11:15 NE 24 1.00 Unknown Precip Fog/Mist and Breezy OVC003 62.6 62.6 100% 29.95 0.0
04 10:55 NE 20 G 28 0.75 Unknown Precip Fog/Mist OVC003 62.6 62.6 100% 29.95 0.0
04 10:35 NE 23 G 30 0.75 Light Rain Fog/Mist and Breezy OVC003 62.6 62.6 100% 29.95 0.0
04 10:15 NE 23 0.75 Light Rain Fog/Mist and Breezy OVC004 62.6 62.6 100% 29.94 0.0
04 09:55 NE 24 G 31 0.75 Light Rain Fog/Mist and Breezy OVC003 62.6 62.6 100% 29.93 0.0
04 09:35 NE 23 0.50 Light Rain Fog/Mist and Breezy OVC003 62.6 62.6 100% 29.93 0.0
04 09:15 NE 23 G 30 0.75 Unknown Precip Fog/Mist and Breezy OVC003 62.6 62.6 100% 29.92 0.0
04 08:55 NE 20 0.75 Unknown Precip Fog/Mist OVC003 62.6 62.6 100% 29.92 0.0
04 08:35 NE 18 G 24 0.50 Unknown Precip Fog/Mist OVC003 62.6 62.6 100% 29.91 0.0
04 08:15 NE 18 0.50 Unknown Precip Fog/Mist OVC003 62.6 62.6 100% 29.9 0.0
04 07:55 NE 18 0.75 Unknown Precip Fog/Mist OVC003 62.6 62.6 100% 29.89 0.0
04 07:35 NE 21 G 26 0.75 Unknown Precip Fog/Mist and Breezy OVC003 62.6 60.8 94% 29.88 0.0
04 07:15 NE 20 1.00 Unknown Precip Fog/Mist OVC004 60.8 60.8 100% 29.88 0.0
04 06:55 NE 20 G 28 2.00 Unknown Precip Fog/Mist OVC004 60.8 60.8 100% 29.88 0.0
04 06:35 NE 22 G 30 9.00 Overcast and Breezy OVC005 60.8 60.8 100% 29.86 0.0
04 06:15 NE 22 10.00 Overcast and Breezy OVC006 62.6 60.8 94% 29.86 0.0
04 05:55 Calm 10.00 Overcast OVC006 62.6 62.6 100% 29.86 0.0
04 05:35 NE 22 10.00 Overcast and Breezy OVC008 62.6 62.6 100% 29.86 0.0
04 05:15 NE 22 10.00 Overcast and Breezy BKN008 OVC011 60.8 60.8 100% 29.86 0.0
04 04:55 NE 22 10.00 Breezy NULL 60.8 60.8 100% 29.85 0.0
04 04:35 NE 17 G 24 10.00 Overcast OVC012 62.6 60.8 94% 29.85 0.0
04 04:15 NE 21 10.00 Overcast and Breezy OVC012 62.6 62.6 100% 29.85 0.0
04 03:55 NE 18 10.00 Overcast OVC012 62.6 62.6 100% 29.87 0.0 0.01
04 03:35 NE 17 10.00 Mostly Cloudy BKN012 BKN021 BKN048 62.6 62.6 100% 29.87 0.0
04 03:15 E 12 G 20 8.00 Light Rain SCT009 BKN025 BKN037 62.6 62.6 100% 29.87 0.0
04 02:55 E 17 G 23 3.00 Thunderstorm in Vicinity Rain Fog/Mist FEW004 SCT012 BKN024 62.6 62.6 100% 29.85 0.0 0.16
04 02:35 NE 18 2.00 Heavy Rain Fog/Mist FEW004 SCT008 BKN012 62.6 62.6 100% 29.9 0.0
04 02:15 N 20 G 30 9.00 Thunderstorm in Vicinity Rain OVC008 62.6 62.6 100% 29.9 0.0
04 01:55 NE 25 G 31 10.00 Thunderstorm in Vicinity and Breezy OVC008 62.6 62.6 100% 29.86 0.0
04 01:35 NE 22 10.00 Thunderstorm in Vicinity and Breezy OVC010 62.6 62.6 100% 29.88 0.0
04 01:15 NE 17 10.00 Overcast OVC011 62.6 62.6 100% 29.88 0.0
04 00:55 NE 14 10.00 Overcast BKN011 OVC032 62.6 62.6 100% 29.9 0.0
04 00:35 NE 20 10.00 Overcast OVC033 62.6 62.6 100% 29.89 0.0
04 00:15 E 18 10.00 Overcast FEW024 OVC034 62.6 62.6 100% 29.89 0.0
03 23:55 E 23 10.00 Overcast and Breezy BKN024 OVC036 62.6 62.6 100% 29.9 0.0 0.02
03 23:35 E 26 7.00 Light Rain and Windy OVC024 62.6 62.6 100% 29.89 0.0
03 23:15 NE 25 G 31 7.00 Light Rain and Breezy OVC025 62.6 62.6 100% 29.9 0.0
03 22:55 NE 26 10.00 Overcast and Windy OVC024 62.6 62.6 100% 29.9 0.0 0.1
03 22:35 NE 28 7.00 Light Rain and Windy FEW004 BKN023 OVC042 62.6 62.6 100% 29.9 0.0
03 22:15 NE 24 4.00 Light Rain Fog/Mist and Breezy FEW004 SCT009 OVC041 62.6 62.6 100% 29.89 0.0
03 21:55 NE 26 4.00 Light Rain Fog/Mist and Windy SCT004 BKN018 OVC041 62.6 62.6 100% 29.9 0.0 0.26
03 21:35 NE 25 G 35 1.25 Thunderstorm Heavy Rain Fog/Mist and Breezy BKN004 BKN023 OVC036 64.4 62.6 94% 29.92 0.0
03 21:15 N 21 G 29 4.00 Thunderstorm in Vicinity Rain Fog/Mist and Breezy FEW004 BKN060 OVC075 62.6 62.6 100% 29.91 0.0
03 20:55 NE 23 G 30 10.00 Thunderstorm in Vicinity and Breezy OVC070 64.4 62.6 94% 29.88 0.0
03 20:35 NE 29 10.00 Overcast and Windy OVC065 64.4 62.6 94% 29.85 0.0
03 20:15 NE 30 10.00 Overcast and Windy BKN065 OVC075 64.4 62.6 94% 29.85 0.0
03 19:55 NE 29 10.00 Overcast and Windy OVC060 64.4 62.6 94% 29.87 0.0
03 19:35 NE 25 10.00 Overcast and Breezy OVC055 64.4 62.6 94% 29.86 0.0
03 19:15 NE 26 10.00 Overcast and Windy OVC055 64.4 62.6 94% 29.85 0.0
03 18:55 NE 29 10.00 Overcast and Windy BKN050 OVC060 64.4 62.6 94% 29.85 0.0
03 18:35 NE 29 G 38 10.00 Overcast and Windy SCT050 OVC060 64.4 62.6 94% 29.84 0.0
03 18:15 NE 31 G 39 10.00 Mostly Cloudy and Windy BKN050 BKN060 64.4 62.6 94% 29.84 0.0
03 17:55 NE 31 G 37 10.00 Thunderstorm in Vicinity and Windy CLR 64.4 62.6 94% 29.82 0.0
03 17:35 NE 30 G 37 10.00 Fair and Windy CLR 66.2 62.6 88% 29.83 0.0
03 17:15 NE 29 10.00 Fair and Windy CLR 66.2 62.6 88% 29.83 0.0
03 16:55 NE 28 G 36 10.00 Fair and Windy CLR 66.2 62.6 88% 29.83 0.0
03 16:35 NE 25 G 31 10.00 A Few Clouds and Breezy FEW070 66.2 62.6 88% 29.84 0.0
03 16:15 NE 25 10.00 Partly Cloudy and Breezy SCT070 66.2 62.6 88% 29.84 0.0
03 15:55 NE 24 10.00 Fair and Breezy CLR 66.2 62.6 88% 29.84 0.0
03 15:35 NE 22 G 31 10.00 Partly Cloudy and Breezy SCT050 66.2 62.6 88% 29.85 0.0
03 15:15 NE 21 10.00 Overcast and Breezy OVC050 66.2 62.6 88% 29.86 0.0
03 14:55 NE 23 G 31 10.00 Overcast and Breezy FEW040 BKN049 OVC060 66.2 62.6 88% 29.86 0.0
03 14:35 NE 22 G 29 10.00 Overcast and Breezy BKN047 OVC060 66.2 62.6 88% 29.86 0.0
03 14:15 NE 24 10.00 Mostly Cloudy and Breezy FEW050 BKN060 BKN080 66.2 62.6 88% 29.86 0.0
03 13:55 NE 20 G 25 10.00 Mostly Cloudy FEW049 BKN065 BKN075 66.2 62.6 88% 29.87 0.0
03 13:35 NE 21 G 28 10.00 A Few Clouds and Breezy FEW042 66.2 62.6 88% 29.87 0.0
03 13:15 NE 21 10.00 Mostly Cloudy and Breezy BKN046 66.2 62.6 88% 29.88 0.0
03 12:55 NE 22 10.00 Mostly Cloudy and Breezy BKN046 66.2 62.6 88% 29.89 0.0
03 12:35 NE 20 10.00 A Few Clouds FEW044 FEW055 66.2 62.6 88% 29.89 0.0
03 12:15 NE 20 10.00 Partly Cloudy SCT047 SCT055 66.2 62.6 88% 29.89 0.0
03 11:55 NE 22 10.00 Mostly Cloudy and Breezy SCT048 BKN060 66.2 62.6 88% 29.9 0.0
03 11:35 NE 21 G 26 10.00 Partly Cloudy and Breezy FEW050 SCT055 66.2 62.6 88% 29.9 0.0
03 11:15 NE 21 10.00 A Few Clouds and Breezy FEW044 66.2 62.6 88% 29.91 0.0
03 10:55 NE 20 10.00 Partly Cloudy SCT044 SCT060 66.2 62.6 88% 29.91 0.0
03 10:35 NE 18 10.00 Partly Cloudy SCT060 66.2 62.6 88% 29.91 0.0
03 10:15 NE 20 10.00 Fair CLR 66.2 62.6 88% 29.92 0.0
03 09:55 NE 17 10.00 Partly Cloudy SCT075 66.2 62.6 88% 29.92 0.0
03 09:35 NE 15 10.00 Mostly Cloudy BKN075 64.4 62.6 94% 29.92 0.0
03 09:15 NE 15 10.00 Partly Cloudy SCT008 SCT075 64.4 62.6 94% 29.91 0.0
03 08:55 NE 13 10.00 Overcast OVC008 64.4 62.6 94% 29.93 0.0
03 08:35 NE 13 10.00 Overcast OVC008 64.4 62.6 94% 29.93 0.0
03 08:15 NE 13 10.00 Partly Cloudy SCT008 SCT055 64.4 62.6 94% 29.93 0.0
03 07:55 NE 13 10.00 Fair CLR 64.4 62.6 94% 29.92 0.0
03 07:35 NE 13 10.00 Fair CLR 64.4 62.6 94% 29.92 0.0
03 07:15 NE 12 10.00 Fair CLR 62.6 62.6 100% 29.92 0.0
03 06:55 E 9 10.00 Fair CLR 62.6 62.6 100% 29.92 0.0
03 06:35 NE 10 10.00 Fair CLR 62.6 62.6 100% 29.91 0.0
03 06:15 NE 13 10.00 Partly Cloudy SCT055 62.6 62.6 100% 29.91 0.0
03 05:55 NE 12 10.00 Overcast FEW044 OVC055 62.6 62.6 100% 29.91 0.0
03 05:35 NE 7 10.00 Overcast FEW038 FEW043 OVC055 62.6 62.6 100% 29.91 0.0
03 05:15 E 8 10.00 Mostly Cloudy FEW037 FEW043 BKN050 62.6 62.6 100% 29.9 0.0
03 04:55 Calm 10.00 Partly Cloudy FEW035 SCT049 SCT055 62.6 62.6 100% 29.91 0.0
03 04:35 Vrbl 5 10.00 A Few Clouds FEW044 FEW050 62.6 62.6 100% 29.9 0.0
03 04:15 Vrbl 3 10.00 Fair CLR 62.6 62.6 100% 29.9 0.0
03 03:55 E 7 10.00 Fair CLR 64.4 62.6 94% 29.89 0.0
03 03:35 NE 8 10.00 Fair CLR 64.4 62.6 94% 29.9 0.0
03 03:15 NE 9 10.00 Fair CLR 64.4 60.8 88% 29.9 0.0
03 02:55 NE 8 10.00 Fair CLR 64.4 62.6 94% 29.9 0.0
03 02:35 NE 8 10.00 Fair CLR 64.4 62.6 94% 29.91 0.0
03 02:15 NE 6 10.00 Fair CLR 64.4 62.6 94% 29.91 0.0
03 01:55 NE 10 10.00 A Few Clouds FEW100 64.4 62.6 94% 29.91 0.0
03 01:35 NE 8 10.00 Mostly Cloudy BKN110 64.4 62.6 94% 29.91 0.0
03 01:15 NE 8 10.00 Mostly Cloudy BKN120 64.4 62.6 94% 29.92 0.0
03 00:55 E 6 10.00 Mostly Cloudy FEW100 BKN120 66.2 60.8 83% 29.92 0.0
03 00:35 E 5 10.00 Fair CLR 66.2 62.6 88% 29.92 0.0
03 00:15 Calm 10.00 Partly Cloudy FEW050 SCT100 66.2 64.4 94% 29.91 0.0
02 23:55 Vrbl 5 10.00 Partly Cloudy FEW049 SCT100 66.2 64.4 94% 29.91 0.0
02 23:35 NE 7 10.00 A Few Clouds FEW049 FEW055 66.2 62.6 88% 29.91 0.0
02 23:15 NE 9 10.00 Partly Cloudy FEW050 SCT110 66.2 62.6 88% 29.91 0.0
02 22:55 NE 9 10.00 Mostly Cloudy BKN110 66.2 64.4 94% 29.91 0.0
02 22:35 Calm 10.00 Mostly Cloudy BKN110 66.2 64.4 94% 29.9 0.0
02 22:15 NE 8 10.00 Fair CLR 66.2 64.4 94% 29.91 0.0
02 21:55 NE 9 10.00 A Few Clouds FEW049 68 62.6 83% 29.9 0.0
02 21:35 NE 3 10.00 Fair CLR 68 62.6 83% 29.9 0.0
02 21:15 N 5 10.00 Fair CLR 68 62.6 83% 29.89 0.0
02 20:55 N 5 10.00 Fair CLR 68 62.6 83% 29.89 0.0
02 20:35 N 3 10.00 Fair CLR 68 62.6 83% 29.88 0.0
02 20:15 N 6 10.00 Fair CLR 66.2 62.6 88% 29.88 0.0
02 19:55 Calm 10.00 Fair CLR 68 62.6 83% 29.87 0.0
02 19:35 Calm 9.00 Fair CLR 68 64.4 88% 29.88 0.0
02 19:15 Calm 10.00 Fair CLR 68 64.4 88% 29.87 0.0
02 18:55 Calm 10.00 Fair CLR 68 64.4 88% 29.87 0.0
02 18:35 E 5 10.00 Fair CLR 68 64.4 88% 29.87 0.0
02 18:15 E 7 10.00 Fair CLR 68 64.4 88% 29.87 0.0
02 17:55 Vrbl 3 10.00 Fair CLR 69.8 62.6 78% 29.87 0.0
02 17:35 E 5 10.00 Fair CLR 69.8 62.6 78% 29.86 0.0
02 17:15 NE 5 10.00 Fair CLR 68 64.4 88% 29.87 0.0
02 16:55 Vrbl 3 10.00 Fair CLR 69.8 64.4 83% 29.87 0.0
02 16:35 Vrbl 3 10.00 Fair CLR 69.8 64.4 83% 29.87 0.0
02 16:15 NE 8 10.00 NULL NULL 69.8 64.4 83% 29.87 0.0
02 15:35 N 7 10.00 Fair CLR 71.6 64.4 78% 29.87 0.0
02 15:15 Vrbl 6 10.00 Fair CLR 73.4 62.6 69% 29.87 0.0
02 14:55 E 5 10.00 Fair CLR 71.6 62.6 73% 29.88 0.0
02 14:35 E 6 10.00 Fair CLR 71.6 62.6 73% 29.88 0.0
02 14:15 NE 5 10.00 Fair CLR 69.8 64.4 83% 29.89 0.0
02 13:55 NE 7 10.00 Fair CLR 69.8 62.6 78% 29.89 0.0
02 13:35 E 6 10.00 Fair CLR 71.6 62.6 73% 29.89 0.0
02 13:15 E 6 10.00 Fair CLR 69.8 62.6 78% 29.89 0.0
02 12:55 E 7 10.00 NULL NULL 69.8 62.6 78% 29.89 0.0
02 12:35 E 6 10.00 Fair CLR 69.8 62.6 78% 29.9 0.0
02 12:15 NE 6 10.00 Fair CLR 69.8 62.6 78% 29.91 0.0
02 11:55 NE 6 10.00 Fair CLR 69.8 62.6 78% 29.91 0.0
02 11:35 NE 7 10.00 NULL NULL 69.8 62.6 78% 29.91 0.0
02 11:15 NE 6 10.00 NULL NULL 69.8 62.6 78% 29.91 0.0
02 10:55 Calm 10.00 Fair CLR 69.8 60.8 73% 29.91 0.0
02 10:35 Calm 10.00 Fair CLR 69.8 60.8 73% 29.91 0.0
02 10:15 E 5 10.00 Fair CLR 68 60.8 78% 29.9 0.0
02 09:55 E 5 10.00 Fair CLR 68 60.8 78% 29.9 0.0
02 09:35 E 3 10.00 Fair CLR 68 60.8 78% 29.91 0.0
02 09:15 E 3 10.00 Fair CLR 66.2 62.6 88% 29.91 0.0
02 08:55 Calm 10.00 Fair CLR 66.2 62.6 88% 29.92 0.0
02 08:35 Calm 10.00 Fair CLR 66.2 62.6 88% 29.92 0.0
02 08:15 SW 5 10.00 Fair CLR 66.2 62.6 88% 29.92 0.0
02 07:55 SW 5 10.00 Fair CLR 64.4 62.6 94% 29.92 0.0
02 07:35 Calm 10.00 Fair CLR 64.4 62.6 94% 29.92 0.0
02 07:15 S 3 8.00 Fair CLR 62.6 62.6 100% 29.91 0.0
02 06:55 Calm 10.00 Fair CLR 62.6 62.6 100% 29.9 0.0
02 06:35 Calm 10.00 Fair CLR 64.4 62.6 94% 29.9 0.0
02 06:15 Calm 10.00 Fair CLR 64.4 62.6 94% 29.89 0.0
02 05:55 W 3 10.00 Fair CLR 64.4 62.6 94% 29.89 0.0
02 05:35 Calm 10.00 A Few Clouds FEW048 64.4 60.8 88% 29.89 0.0
02 05:15 SW 7 10.00 Fair CLR 64.4 60.8 88% 29.9 0.0
02 04:55 SW 7 10.00 A Few Clouds FEW041 64.4 62.6 94% 29.91 0.0
02 04:35 S 5 10.00 Fair CLR 64.4 62.6 94% 29.9 0.0
02 04:15 S 5 10.00 Fair CLR 66.2 62.6 88% 29.89 0.0
02 03:55 S 3 10.00 Fair CLR 66.2 60.8 83% 29.89 0.0
Date Time (cdt) Wind (mph) Vis. (mi.) Weather Sky Cond. Air Dwpt Max. Min. Relative Humidity Wind Chill (°F) Heat Index (°F) altimeter (in) sea level (mb) 1 hr 3 hr 6 hr
6 hour
Temperature (ºF) Pressure Precipitation (in)